Hourly Data Report for October 20, 2019

MUSKOKA
ONTARIO
Current Station Operator: NAVCAN

44°58'29.000" N
79°18'12.000" W
281.90 m
6115529
71532
YQA

Download Data

Hourly Data (October 2019)
Hourly Data Report for October 20, 2019
TIME
LST
Temp Definition
°C
Dew Point Definition
°C
Rel Hum Definition
%
Precip. Amount Definition
mm

Wind Dir Definition
10's deg

Wind Spd Definition
km/h
Visibility Definition
km
Stn Press Definition
kPa
Hmdx Definition


Wind Chill Definition


Weather Definition


00:00 3.6 1.8 88 0.0 12 9 16.1 97.96     LegendNANA
01:00 3.7 1.7 87 0.0 11 5 16.1 97.96     LegendNANA
02:00 3.8 1.8 87 0.0 11 9 16.1 97.91     LegendNANA
03:00 3.8 1.4 84 0.0 12 11 16.1 97.89     LegendNANA
04:00 3.9 1.8 86 0.0 11 9 16.1 97.84     LegendNANA
05:00 4.0 1.6 84 0.0 11 11 16.1 97.82     LegendNANA
06:00 3.3 1.2 86 0.0 12 8 16.1 97.84     LegendNANA
07:00 2.3 1.0 91 0.0 13 5 16.1 97.88     LegendNANA
08:00 4.3 2.0 85 0.0 12 9 16.1 97.90     LegendNANA
09:00 5.9 3.4 84 0.0 14 8 16.1 97.93     LegendNANA
10:00 8.1 4.7 79 0.0 14 11 16.1 97.91     LegendNANA
11:00 11.2 5.8 69 0.0 17 8 16.1 97.95     LegendNANA
12:00 12.6 6.2 65 0.0 LegendMM 4 16.1 97.92     LegendNANA
13:00 14.6 6.3 57 0.0 17 5 16.1 97.89     LegendNANA
14:00 15.3 6.1 54 0.0 18 9 16.1 97.88     LegendNANA
15:00 15.9 6.5 53 0.0 15 9 16.1 97.91     LegendNANA
16:00 16.3 5.3 48 0.0 23 11 16.1 97.94     LegendNANA
17:00 13.5 6.2 61 0.0 20 5 16.1 97.98     LegendNANA
18:00 9.6 6.3 80 0.0   0 16.1 98.02     LegendNANA
19:00 6.6 5.2 91 0.0   0 16.1 98.08     LegendNANA
20:00 5.4 4.7 95 0.0   0 16.1 98.12     LegendNANA
21:00 4.2 3.8 97 0.0   0 16.1 98.21     LegendNANA
22:00 3.5 3.2 98 0.0 32 5 16.1 98.26     LegendNANA
23:00 2.1 1.8 98 0.0   0 14.5 98.28     LegendNANA

Notes on Data Quality.

Legend

  • E = Estimated
  • M = Missing
  • NA = Not Available*
  • [empty] = Indicates an unobserved value
Date modified: